星链-5354 (STARLINK-5354 )

导读 | 星芒AI

STARLINK-5354 是 SpaceX Starlink 项目中的一颗低轨通信卫星,属于第53批发射的星链卫星群。该卫星运行在约550公里高度的近地轨道,旨在为全球用户提供高速互联网服务。它采用先进的推进系统和激光通信技术,以提高网络效率和稳定性。作为星链星座的一部分,STARLINK-5354 有助于扩大覆盖范围,特别是在偏远和网络基础设施薄弱的地区。该卫星于2023年发射,是SpaceX构建全球宽带网络计划的重要组成部分。

基本信息
目录编号:
57140
目录名称:
STARLINK-5354
国际标识:
2023-090AR
轨道中心:
EARTH
卫星名称:
星链-5354
卫星全名:
星链-5354 (STARLINK-5354 )
卫星状态:
已陨落 最后检测时间 2024-09-22
发射日期:
2023-06-23 UTC
国别 :
美国 (US)
星等 :
--
轨道信息
数据来源 国际轨道数据
星历时间: 2024-09-21T00:34:18+0800
轨道信息已过期415天
半长轴: 6612.909km
偏心率: 0.0012266
轨道倾角: 42.989°
近地点辐角 184.571°
升交点赤经 217.214°
平近点角 309.719°
近地点: 226.662km
远地点: 242.886km
周期: 89.197分钟
每日圈数: 16.144104
详细信息
固有亮度:
5
最大亮度:
2.4
卫星平台:
Starlink v1.5
覆盖范围:
全球
运营商:
太空探索技术公司
运营商所在国:
美国
制造商(研发单位):
太空探索技术公司
制造商所在国:
美国
使用方式:
暂无
卫星简介
星链(Starlink)计划是由太空探索技术公司(SpaceX)提出的一个巨型低轨卫星互联网星座项目,计划在2019年至2024年间在太空搭建由约1.2万颗卫星组成的“星链”网络,其中1584颗将部署在地球上空550千米处的近地轨道,并从2020年开始工作。该卫星仍在工作。